Theta_e
336 336 337 336 337 337 335 335 334 334 333 332 332 333 332 331 330 330 330 331 332 332 331 329 327 328 328 323 315 313 316 317 314 310 306 303 302 302 302 302 301 301 301 301 301 300 300 300 300 300 300 300 300 300 300 300 301 302 302 301 300 300 301 302 301 301 301 301 301 300 298 296 296 296 296 296 297 298 298 297 297 297 297 297 298
337 337 337 337 337 337 336 334 333 333 332 332 333 333 333 332 330 330 330 331 331 331 331 329 328 328 326 320 314 314 316 315 312 309 305 302 302 302 301 301 301 301 301 301 300 300 300 300 300 300 300 300 300 300 300 300 299 299 299 299 299 299 299 300 301 301 302 301 301 300 297 295 296 296 296 296 296 297 298 297 297 297 297 297 298
338 338 337 336 337 337 336 334 333 332 332 331 332 333 333 332 330 330 331 331 331 331 330 329 328 326 324 319 314 313 314 312 309 305 303 302 302 302 301 301 300 300 300 300 300 300 300 300 300 300 300 300 300 300 300 299 299 299 299 299 299 298 299 299 300 301 302 301 301 299 295 295 295 295 295 295 296 297 298 298 297 297 297 298 298
338 337 336 335 336 336 336 334 333 332 331 331 332 333 333 331 330 330 331 331 331 330 329 328 326 323 321 318 314 314 313 310 306 303 302 302 302 301 301 301 300 300 300 300 300 300 300 300 299 300 300 300 300 300 299 299 299 299 299 299 298 298 298 299 299 301 302 302 300 297 294 294 295 295 295 295 295 296 297 298 298 297 297 297 297
337 337 336 335 336 335 335 334 332 331 330 330 332 332 331 330 330 331 332 331 330 329 328 326 323 321 319 317 315 314 312 308 304 302 301 301 301 301 301 300 300 300 300 300 300 300 299 299 300 300 300 300 300 300 299 299 299 298 298 298 298 297 298 298 299 301 301 301 299 296 294 294 294 294 295 295 295 296 297 298 298 298 298 297 297
337 336 336 335 334 333 333 332 331 330 330 331 332 331 330 330 331 331 331 330 329 329 327 324 321 320 318 315 313 311 309 306 303 302 301 301 301 300 300 300 300 299 299 299 299 299 299 299 299 300 300 300 299 299 299 299 298 298 298 297 297 297 297 298 299 300 300 299 297 295 295 295 294 294 295 295 295 296 296 298 298 298 298 297 296
336 336 335 334 333 332 333 332 331 330 330 331 331 330 330 330 331 331 331 330 329 328 327 323 320 318 316 314 311 309 307 304 302 301 301 301 300 300 300 300 299 299 299 299 299 299 299 299 299 300 300 300 299 299 299 299 298 298 297 297 297 296 296 297 298 298 298 297 295 295 295 295 294 294 294 295 295 295 296 297 297 298 298 297 296
336 335 334 333 333 332 332 332 331 330 330 331 331 330 330 330 331 331 330 329 329 328 326 322 319 316 314 311 310 308 305 303 301 301 301 300 300 300 300 299 299 299 299 299 299 299 299 299 299 300 300 299 299 299 299 298 298 298 297 297 297 296 296 296 296 296 296 295 295 295 295 295 295 295 295 295 295 295 295 296 297 297 298 297 296
335 335 334 333 333 332 331 331 331 330 331 331 331 330 330 330 331 330 329 328 328 326 323 320 318 316 314 311 309 307 305 303 301 300 300 300 300 300 299 299 299 299 299 299 299 299 299 299 299 300 300 299 299 299 298 298 298 298 297 297 296 296 296 296 296 296 295 295 295 295 295 295 295 295 295 295 295 295 295 296 296 297 297 297 297
335 334 334 333 333 332 330 330 331 331 331 331 331 331 330 331 330 329 328 328 326 324 322 320 318 316 314 312 309 307 305 302 301 300 300 300 300 299 300 299 299 299 299 299 299 299 299 299 299 300 299 299 299 298 298 298 298 298 298 297 296 296 296 296 296 296 296 296 296 296 296 296 296 296 296 296 296 296 295 296 296 297 297 297 297
335 334 334 334 334 332 331 330 331 331 331 331 331 330 331 331 330 328 327 327 325 323 321 320 318 315 313 311 309 307 304 301 300 299 299 299 299 299 299 299 299 299 299 299 299 299 299 299 299 300 299 299 299 298 298 298 298 298 298 297 297 296 296 295 296 296 297 297 297 297 297 297 297 297 297 297 296 296 296 296 297 297 297 297 297
335 334 333 333 334 333 331 330 331 331 331 330 331 331 331 330 329 328 327 326 324 323 322 320 318 315 312 309 308 306 304 301 300 300 300 300 299 299 300 299 299 299 299 299 299 299 299 299 299 300 299 299 299 298 298 298 298 298 298 297 297 296 296 295 295 296 297 297 297 298 298 298 298 298 298 298 297 296 296 297 297 297 297 297 297
335 335 334 334 334 333 332 330 330 331 332 331 331 331 331 330 328 328 327 326 325 325 324 322 319 317 313 310 308 306 305 303 301 301 300 300 300 300 300 300 299 299 299 299 299 298 298 299 299 299 299 298 298 298 298 298 298 297 297 298 297 297 296 296 295 296 297 297 298 298 298 298 299 299 298 298 298 297 296 297 297 297 297 298 297
336 335 335 335 334 333 332 330 330 331 331 331 330 330 330 329 328 327 326 325 325 325 324 324 322 319 316 312 308 307 306 305 303 302 302 301 301 300 300 300 300 299 299 299 298 298 298 298 299 299 299 299 299 299 298 298 298 297 298 298 298 297 297 296 296 295 296 298 298 298 299 299 299 299 299 298 299 298 297 297 297 297 298 298 298
337 336 336 335 334 333 332 331 330 330 331 330 329 329 329 329 328 327 326 325 325 325 325 324 322 320 318 314 310 307 306 306 305 304 303 302 302 301 301 301 300 300 299 299 299 298 298 298 299 299 299 299 299 298 298 297 297 297 298 298 298 298 297 297 296 296 296 297 298 298 299 299 299 300 299 298 299 299 298 298 298 298 299 299 299
336 336 336 335 334 333 331 330 330 330 330 329 328 328 329 329 328 327 327 325 325 325 324 323 322 320 319 317 313 309 307 307 306 305 304 304 303 302 302 302 302 301 300 299 299 298 298 298 298 299 299 299 298 298 297 297 297 297 298 298 298 298 298 297 296 296 296 297 298 299 299 300 300 300 300 298 298 299 299 299 299 299 299 300 300
335 334 334 334 334 333 331 331 330 330 329 328 328 328 328 329 328 328 327 326 325 324 323 322 321 320 320 319 317 313 310 308 307 306 305 305 304 304 304 303 302 301 300 300 299 298 298 297 298 298 299 299 298 298 298 297 297 297 297 298 298 297 297 297 296 295 296 298 299 299 300 300 300 300 300 299 298 299 299 299 299 300 300 300 300
335 334 333 333 333 333 332 331 330 330 328 328 328 328 329 329 328 328 327 326 325 324 323 322 321 321 321 321 320 317 313 310 308 306 306 305 305 305 304 304 303 302 300 299 299 298 297 297 297 298 298 298 298 298 297 298 297 297 297 297 297 296 296 296 296 295 296 298 299 299 300 300 300 300 300 299 298 299 299 299 299 300 300 300 300
335 334 333 333 333 333 332 331 330 330 328 327 328 328 329 328 328 327 326 326 325 324 323 322 322 322 321 320 318 316 314 311 309 307 307 306 306 306 305 304 303 302 300 299 299 298 297 297 297 297 298 298 298 298 298 297 297 297 297 297 297 296 296 296 295 295 297 298 299 299 300 300 300 300 300 299 298 299 300 299 299 299 299 300 300
336 334 333 332 333 333 333 332 331 330 327 326 327 328 328 328 327 326 326 325 325 324 323 323 323 322 321 319 317 314 313 311 309 308 308 307 306 306 305 304 303 301 299 299 299 298 298 297 297 297 297 298 298 298 298 297 297 297 297 296 296 296 296 296 295 295 297 298 299 299 300 301 300 300 300 299 298 299 300 299 299 299 299 300 300
336 335 334 333 333 334 333 332 331 330 326 325 327 327 327 328 327 326 326 326 325 324 323 323 323 322 320 318 315 313 312 311 310 310 308 307 306 306 305 304 303 301 300 299 298 298 298 298 298 297 297 297 298 298 298 297 297 297 297 296 296 296 296 296 295 296 297 298 298 300 300 300 300 300 300 299 299 300 300 299 299 299 298 299 300
336 336 335 334 334 334 333 332 330 328 326 325 326 326 326 326 326 326 326 325 324 323 323 323 323 322 320 317 314 313 312 311 311 310 308 306 306 306 306 304 303 303 302 300 298 298 298 298 299 299 297 297 298 298 297 297 297 297 297 297 296 296 296 295 295 296 297 298 299 300 300 300 300 300 300 300 299 300 300 299 299 299 298 299 300
336 336 335 335 334 334 332 331 329 327 326 325 326 326 326 325 325 325 325 324 323 322 322 323 323 322 319 317 315 314 312 311 311 310 308 306 305 305 305 305 304 304 304 301 298 298 298 299 300 300 299 298 298 298 297 297 297 297 297 296 296 296 296 296 295 296 297 298 299 300 300 300 300 300 300 300 299 299 299 300 300 299 298 299 300
336 336 335 335 334 332 331 329 328 327 326 325 325 326 325 325 324 323 324 324 323 322 322 323 322 321 319 318 316 314 312 311 310 310 308 306 304 304 305 305 304 304 304 302 300 299 300 300 300 300 300 299 298 297 297 297 297 297 296 296 296 296 296 296 295 295 296 298 299 300 300 300 300 300 300 300 299 299 300 299 299 299 298 299 300
336 335 335 333 332 331 330 329 328 327 326 325 325 325 325 325 324 323 324 323 322 322 322 322 321 320 320 318 316 314 313 312 310 309 308 307 304 303 304 304 304 304 304 303 301 300 299 300 300 299 298 298 296 296 295 296 296 296 296 296 296 296 296 296 295 295 297 299 299 299 300 300 300 300 299 299 299 299 299 299 299 299 299 299 300
335 334 333 332 331 331 330 329 328 327 326 325 325 325 325 325 324 324 324 322 321 321 321 320 320 320 319 317 316 314 313 312 311 309 308 307 304 302 302 303 303 303 303 303 302 300 299 299 299 297 297 298 298 297 296 296 296 296 296 295 295 295 295 295 295 296 298 300 300 299 300 300 300 300 300 299 299 299 299 299 299 299 299 299 300
335 333 333 332 331 330 330 329 328 326 325 325 324 324 324 324 324 324 324 323 322 322 321 321 321 321 319 317 316 314 313 312 311 310 309 307 304 302 301 301 302 303 303 302 302 300 300 299 299 297 297 300 301 299 299 299 299 299 298 297 295 295 295 295 295 296 298 299 299 299 300 300 300 300 300 300 299 299 299 299 299 299 299 299 299
333 333 332 332 331 331 330 329 328 327 326 325 325 325 325 325 324 325 325 324 324 324 323 322 322 321 319 317 316 314 313 312 312 311 310 309 306 303 301 301 302 302 303 302 301 300 300 300 300 299 299 300 301 301 301 301 301 301 301 299 296 295 295 295 295 296 298 299 299 299 299 300 300 300 300 300 299 299 299 299 299 299 299 299 299
332 333 332 331 331 330 329 329 328 327 327 327 327 326 326 326 326 326 325 325 325 325 324 323 322 320 319 317 316 315 314 313 312 312 311 309 306 303 300 299 300 301 302 302 301 301 301 301 301 301 300 300 301 301 301 302 302 302 301 299 297 295 295 295 296 298 299 299 299 299 299 299 299 300 300 300 300 300 300 299 299 299 299 299 299
332 332 331 330 330 329 328 328 327 327 327 327 327 326 326 325 325 325 325 324 323 323 323 321 319 318 317 316 315 314 313 312 311 309 307 305 303 300 299 299 299 300 301 301 300 301 301 301 301 301 301 300 300 301 302 301 301 302 301 299 297 296 295 296 299 301 301 300 299 299 299 299 299 299 300 300 300 300 300 299 299 299 299 299 299
331 330 330 329 329 328 327 327 327 326 326 326 326 326 325 325 324 323 323 323 322 322 321 319 318 317 316 314 313 312 311 310 307 304 302 302 301 299 299 299 299 299 300 300 300 301 302 301 301 301 301 300 300 301 302 301 300 301 300 298 296 295 295 298 301 301 300 300 299 299 299 299 299 300 300 300 300 300 300 300 299 299 299 299 299
330 330 329 329 328 328 328 327 326 326 325 325 325 324 325 325 324 323 322 321 321 320 319 318 317 316 314 313 311 311 310 307 304 303 303 303 302 301 299 298 298 298 298 298 300 302 302 301 301 301 301 301 301 301 301 301 300 299 297 295 295 296 297 299 301 301 300 300 300 299 299 299 300 300 300 301 300 300 300 300 299 299 299 299 299
330 329 328 328 328 327 327 327 325 325 325 324 324 324 325 325 324 323 322 321 320 319 317 317 316 316 314 312 310 309 308 306 304 304 305 304 303 302 300 299 298 297 297 297 299 301 302 302 302 301 301 301 301 300 300 299 297 296 296 296 297 299 300 300 301 300 300 300 300 299 300 300 299 300 300 300 301 301 300 299 299 299 299 299 299
328 327 326 326 326 326 327 326 325 324 323 323 323 323 324 324 324 324 323 322 320 318 316 316 317 316 313 311 309 308 306 305 305 305 305 305 305 304 302 300 298 297 296 296 296 298 300 301 302 301 301 300 300 298 298 297 295 296 297 299 300 300 301 301 300 300 300 300 300 300 300 299 299 299 299 300 300 300 300 299 299 299 299 298 298
326 325 325 324 324 325 326 325 325 324 323 322 322 323 323 324 323 323 323 323 322 319 317 316 316 315 312 310 308 307 306 306 305 306 306 306 305 304 303 302 301 299 297 296 296 296 297 298 299 298 298 298 297 296 296 296 295 297 299 300 300 300 301 300 300 301 300 300 300 300 300 300 300 299 299 300 300 300 299 299 299 298 299 298 298
325 325 325 324 324 324 325 325 324 324 323 322 322 322 322 322 322 322 322 321 320 318 317 316 315 313 311 309 308 306 306 306 306 306 306 306 305 305 304 303 303 302 301 299 299 299 298 299 298 297 297 296 296 295 295 295 296 298 300 300 300 300 301 301 300 300 300 300 300 300 300 300 300 300 300 300 300 299 299 299 299 299 298 298 298
325 325 325 326 325 324 325 324 324 323 322 321 321 321 321 321 320 319 320 319 316 315 314 314 313 312 310 309 308 306 306 306 306 306 306 305 305 305 305 304 304 304 304 303 302 301 301 300 299 299 298 297 296 295 294 295 297 300 300 299 299 300 301 301 301 300 300 300 300 300 300 300 300 300 300 300 300 299 299 299 299 298 298 298 298
325 325 325 326 325 324 324 324 323 321 321 320 320 320 320 319 318 318 318 317 315 314 313 313 312 312 311 310 308 307 306 306 306 306 306 305 305 305 305 305 305 305 305 304 303 302 301 301 300 299 298 298 297 297 296 297 299 300 299 298 299 300 300 301 301 300 300 300 300 300 300 299 299 300 300 299 299 298 298 298 298 298 298 298 298
325 324 324 324 324 323 323 322 321 320 319 319 319 319 319 318 318 317 317 316 314 314 313 312 312 312 312 310 309 307 307 306 306 306 305 305 305 305 305 305 305 305 305 304 303 302 302 301 301 300 299 299 300 299 299 297 298 299 298 298 299 300 300 300 300 300 300 300 300 300 299 299 299 299 299 298 297 297 297 298 298 298 298 297 297
324 324 323 323 323 322 322 321 320 319 319 319 319 319 318 318 317 317 316 315 314 314 313 313 312 312 311 310 309 308 307 306 306 305 305 304 304 305 305 305 305 305 304 304 303 302 301 301 300 300 300 300 300 299 297 295 294 294 296 297 299 299 300 300 300 300 300 300 299 299 299 299 298 298 297 297 297 297 297 297 297 297 297 297 297
323 322 322 322 322 322 322 322 321 320 320 319 319 319 319 318 317 316 315 315 315 314 313 312 312 311 310 310 309 308 307 306 305 305 304 304 304 304 304 304 304 304 303 303 302 301 301 300 299 298 298 298 297 297 297 296 294 294 296 298 299 299 299 299 299 299 299 299 299 299 298 298 297 297 297 297 297 297 297 297 297 297 297 297 297
321 321 321 321 321 321 321 321 321 320 319 319 319 319 319 318 317 316 315 315 314 313 312 311 311 310 309 309 308 307 306 306 305 304 303 303 303 303 303 303 303 303 302 301 299 298 297 296 295 295 296 296 296 296 297 297 297 297 298 298 298 298 298 298 298 298 298 298 298 297 297 297 297 297 297 297 297 297 298 298 297 297 297 296 296
320 320 320 320 320 320 320 320 319 318 318 318 318 318 318 317 316 315 315 314 313 312 311 311 310 309 309 308 308 307 306 305 304 303 303 302 302 302 301 301 301 300 298 296 295 293 293 293 294 295 296 297 296 296 296 297 297 297 297 297 297 297 297 297 296 296 297 297 297 297 297 297 297 297 297 297 298 298 298 298 297 297 296 296 296
319 319 319 319 319 319 319 318 318 317 318 318 318 317 317 316 315 314 313 313 312 312 311 310 310 309 309 308 307 307 306 304 303 303 302 302 301 301 300 299 298 296 295 294 293 293 293 293 294 296 296 296 297 297 296 296 296 296 296 297 297 296 296 296 296 297 297 297 298 298 297 297 298 298 298 298 298 297 297 297 296 296 296 296 296
319 318 318 318 318 318 318 317 317 317 317 317 317 316 315 314 313 313 312 312 311 311 311 310 309 309 308 308 307 306 305 303 302 302 301 301 300 298 297 296 295 295 295 297 298 297 296 296 296 296 296 297 297 297 296 296 296 296 296 296 296 295 296 296 297 298 298 298 298 297 298 298 298 298 298 297 297 296 296 296 296 296 296 294 292
318 318 318 318 317 317 317 316 316 316 316 316 316 316 315 314 313 313 312 311 311 311 310 310 309 308 308 307 306 305 303 302 301 300 300 299 297 296 295 294 295 296 298 300 300 300 299 299 298 298 298 298 297 296 296 295 295 295 295 295 296 296 297 298 298 298 298 298 298 298 298 298 298 297 297 296 296 296 296 296 296 294 291 289 287
318 317 317 317 316 316 316 315 315 315 315 314 314 314 314 314 312 312 311 310 310 310 310 309 308 308 308 307 305 303 302 301 299 298 297 295 294 293 294 295 296 298 299 300 299 299 299 298 298 298 298 297 296 295 294 294 294 295 296 297 298 298 298 298 298 298 298 298 299 298 298 297 297 296 296 296 296 296 295 293 291 289 287 285 285
317 316 316 316 315 315 315 314 314 314 313 313 313 313 313 313 312 311 310 310 310 309 309 308 308 307 306 305 304 302 300 299 298 296 294 293 293 294 295 297 299 299 299 299 299 298 297 295 295 295 295 294 294 294 295 296 296 297 298 298 298 298 298 298 298 299 299 298 298 298 297 297 296 296 296 296 295 293 291 288 286 285 285 285 284
315 315 315 315 314 314 314 314 313 313 312 312 312 312 312 311 311 310 310 309 309 309 308 307 307 306 305 303 302 299 297 296 295 294 294 294 295 297 298 300 300 299 299 299 299 296 294 292 293 293 293 294 295 296 297 297 298 298 298 298 298 298 298 299 299 298 298 298 297 297 297 297 296 296 295 293 291 289 287 285 285 285 284 284 284
313 314 314 313 313 313 313 313 312 312 311 311 311 311 311 310 309 309 309 309 308 307 306 306 305 305 303 302 299 297 295 295 294 294 295 297 298 299 300 300 299 299 299 299 297 294 292 293 294 294 295 296 297 297 298 298 298 298 298 298 299 299 299 298 298 298 298 297 297 297 296 296 295 294 291 289 287 286 285 285 284 284 284 284 284
312 312 312 312 312 312 312 312 312 311 311 310 310 310 310 309 309 308 308 307 307 306 305 304 304 303 302 300 298 296 295 294 294 294 296 298 299 300 300 300 299 299 299 297 294 292 293 294 295 295 296 297 298 298 299 298 298 298 299 299 299 298 298 298 298 298 297 297 296 296 295 294 291 289 287 286 285 285 284 284 284 284 284 284 284
Wind_Speed
39 38 36 36 35 34 33 32 30 28 26 23 21 21 21 20 19 18 19 20 20 20 20 19 18 17 15 13 15 16 13 9 8 9 11 12 13 14 14 14 14 15 15 15 14 13 12 11 11 11 11 10 9 9 9 10 11 11 11 9 8 7 6 6 7 7 5 1 3 6 8 8 7 7 7 7 7 6 4 3 6 9 12 15 18
39 38 36 35 34 34 34 32 31 29 27 24 23 22 22 21 19 19 20 21 21 20 19 19 17 15 13 13 16 14 10 8 10 11 12 14 15 16 16 16 16 16 16 15 14 13 12 11 12 12 11 10 9 9 9 9 9 8 8 7 6 6 6 7 8 8 5 2 3 6 8 6 6 7 8 8 8 7 3 2 4 8 11 14 17
39 38 36 35 34 34 33 32 31 29 27 26 24 23 22 21 20 20 21 21 21 19 19 18 16 14 13 14 15 13 10 10 12 13 14 15 17 17 17 17 17 17 16 15 14 13 12 12 12 12 12 10 9 8 8 7 6 6 6 5 5 5 6 7 8 7 4 2 3 6 7 6 5 6 8 9 9 7 4 3 4 7 10 12 16
40 38 36 35 34 34 33 32 31 30 28 26 25 24 23 21 21 21 21 21 20 19 19 18 16 14 14 15 14 12 11 12 13 14 15 16 17 17 18 18 17 17 16 15 14 13 13 13 13 12 11 10 9 7 6 6 5 4 4 3 3 3 4 5 6 5 4 3 4 5 5 5 5 6 6 7 8 7 6 3 3 5 9 12 15
40 38 36 35 35 35 34 33 32 30 28 26 25 25 23 21 21 22 22 22 20 19 18 17 15 15 15 14 13 11 12 13 13 14 16 17 18 18 18 18 18 18 17 15 15 14 14 14 13 12 11 10 8 7 6 6 6 4 3 2 1 0 2 3 4 4 4 3 4 4 3 4 7 7 7 6 6 6 5 4 4 5 7 11 14
40 39 37 35 34 35 35 33 31 29 26 26 25 24 23 22 22 23 23 21 20 19 18 15 14 14 14 13 12 12 12 13 14 15 17 18 19 19 19 19 19 19 18 17 16 15 15 15 14 12 11 9 8 7 7 7 6 5 4 3 3 2 1 3 4 4 3 3 2 1 2 3 6 8 10 10 8 7 6 4 4 6 7 11 14
39 38 36 34 33 34 34 33 31 28 25 25 26 24 23 22 22 24 23 21 20 18 17 15 14 14 13 12 12 12 12 13 15 16 17 19 20 20 21 21 21 20 19 17 16 16 15 14 13 12 10 9 8 7 7 7 6 6 4 3 3 2 2 2 3 3 3 3 1 1 4 5 6 8 11 11 10 10 10 8 7 8 9 12 15
37 35 33 33 33 35 34 32 31 28 24 25 26 24 23 23 24 24 23 20 19 17 16 14 14 14 13 13 13 13 13 14 16 17 18 20 21 21 22 22 22 21 19 18 17 16 15 15 13 12 10 9 8 7 7 7 6 6 4 3 3 2 3 3 2 1 0 1 1 3 6 6 7 8 9 9 9 12 15 13 12 11 11 13 16
36 34 33 33 34 34 33 32 31 28 25 25 26 25 24 24 25 25 22 19 17 15 15 15 15 14 14 14 14 14 15 15 17 18 19 20 21 22 23 23 23 21 20 19 18 17 16 15 13 12 11 10 10 9 8 8 7 6 4 3 3 3 4 4 4 4 4 3 4 6 7 8 9 10 11 13 14 15 15 14 13 12 11 12 16
36 34 33 33 33 34 33 32 31 28 25 26 27 26 25 26 26 25 21 18 16 16 16 16 15 14 14 15 15 16 16 16 17 18 19 20 22 23 24 23 23 21 20 19 19 18 16 15 14 13 13 12 11 10 9 9 8 6 4 3 3 4 5 6 6 6 7 7 8 9 10 10 11 12 13 15 16 15 15 14 13 13 13 13 16
36 34 33 34 34 33 33 32 29 26 24 26 28 27 27 28 27 24 21 18 17 17 17 15 14 14 14 16 16 16 16 17 18 19 19 21 22 23 24 23 23 21 20 19 18 17 16 16 16 16 15 14 12 11 10 9 8 6 4 3 3 3 5 7 7 7 8 9 11 11 12 12 12 13 13 14 15 15 15 15 14 15 15 16 18
35 34 34 35 35 34 33 31 28 25 24 26 28 28 28 29 27 24 21 19 19 18 16 14 13 14 15 16 17 16 16 17 18 19 20 21 22 23 23 23 22 21 20 19 18 16 17 19 19 18 16 15 13 12 10 9 8 6 5 3 2 2 5 7 8 7 6 8 9 10 11 11 11 12 13 13 14 15 14 14 14 15 16 16 17
35 35 34 35 35 34 33 30 27 25 23 25 28 29 29 30 28 25 22 21 20 18 15 13 13 13 15 16 16 16 16 17 18 19 20 21 22 23 23 23 22 21 20 19 18 18 20 21 20 19 18 16 14 12 10 9 8 6 5 4 3 1 4 6 8 7 5 5 6 8 9 9 9 10 11 11 13 15 14 13 13 13 14 14 15
37 37 36 36 35 34 32 29 26 24 22 24 28 30 31 30 28 25 23 22 21 18 15 13 12 12 14 15 16 16 16 16 17 17 19 20 21 22 22 22 22 20 19 19 19 20 21 22 21 20 19 17 14 12 10 9 9 7 5 5 4 1 3 5 6 7 5 4 5 6 7 8 8 9 10 9 11 14 13 12 12 12 12 13 13
40 39 38 38 36 33 31 28 26 24 22 24 29 31 32 31 29 26 25 23 21 18 15 13 11 11 11 12 15 16 15 16 16 17 18 19 21 22 22 22 22 20 20 20 20 21 22 22 21 20 18 16 15 13 11 10 10 8 6 6 5 1 3 4 5 7 5 3 4 5 7 7 6 7 9 8 10 13 12 11 11 12 12 12 11
39 38 37 37 36 33 30 28 26 25 23 24 30 33 33 32 30 27 25 23 20 18 15 13 11 9 9 10 13 15 16 16 17 17 17 18 20 21 21 22 21 20 20 20 20 20 21 22 21 20 18 17 15 13 12 12 10 9 7 6 4 1 2 3 5 6 5 3 3 4 5 5 4 6 8 8 7 10 11 10 10 10 11 12 13
39 38 38 38 36 32 30 28 26 25 24 25 30 34 34 33 31 28 26 24 21 19 16 13 11 9 8 9 12 14 16 17 18 17 18 19 20 21 21 21 21 20 20 20 20 20 21 21 21 20 19 17 16 15 14 13 11 9 9 6 3 1 2 4 5 6 5 2 2 3 4 4 4 5 9 9 5 6 9 9 9 10 12 14 16
40 39 38 37 35 32 29 27 26 25 25 26 30 33 34 33 32 29 27 25 21 18 16 13 11 10 10 10 11 13 15 17 18 18 19 19 20 20 21 21 21 21 21 20 19 19 20 21 21 20 20 19 18 16 15 14 12 10 9 6 4 2 3 4 6 7 5 2 0 1 1 3 4 4 8 10 6 4 7 9 10 11 12 14 16
40 38 37 36 34 30 27 26 26 25 25 26 29 32 34 33 32 30 27 24 21 18 17 14 13 13 13 13 13 14 15 17 18 19 19 20 20 20 20 22 22 23 22 21 20 19 20 22 22 21 21 20 19 18 16 15 13 11 9 7 5 4 4 5 6 6 5 4 2 2 1 2 3 5 8 9 6 6 8 9 10 12 12 12 15
37 34 32 32 30 28 26 25 25 25 25 27 30 32 34 34 32 30 28 24 22 20 18 16 15 15 15 16 16 17 16 17 19 20 20 21 22 21 22 23 24 24 23 23 22 22 23 24 24 23 22 21 20 18 17 16 14 12 9 7 6 6 6 6 6 6 5 5 4 2 2 3 4 6 8 8 5 6 8 8 10 12 13 11 12
36 31 29 28 27 26 25 24 24 23 23 26 30 32 34 34 33 31 28 25 24 22 20 18 17 16 17 18 18 18 18 18 18 19 20 21 22 22 23 25 25 25 25 23 22 23 25 25 25 24 23 22 21 19 18 17 15 12 10 8 8 8 7 7 7 7 6 6 4 2 2 4 4 6 9 8 5 6 8 9 10 14 14 10 11
35 31 28 27 27 26 24 23 22 22 21 25 30 33 34 34 33 31 29 27 26 24 22 21 18 18 19 21 20 19 19 19 17 17 18 19 21 22 24 26 26 27 26 24 23 24 25 24 23 22 21 20 20 19 19 18 15 13 12 10 10 9 8 8 8 7 7 7 5 3 3 4 5 6 10 9 6 7 9 9 11 16 14 8 9
34 31 28 28 26 24 22 21 21 20 21 24 30 33 35 35 34 32 30 29 28 26 24 23 22 21 22 21 20 19 20 20 19 17 16 17 20 23 25 26 27 28 28 25 23 24 24 24 22 21 19 19 18 18 18 17 16 14 13 12 12 10 9 9 9 8 8 8 6 5 4 5 5 7 10 11 9 8 10 11 13 16 12 6 7
32 29 27 26 23 20 19 19 19 20 20 23 28 33 35 35 34 32 31 30 30 29 26 26 25 23 21 19 19 19 19 19 19 18 16 16 18 22 26 27 28 29 28 26 24 24 24 24 22 20 20 19 19 18 18 16 15 15 14 13 13 11 10 10 9 9 8 7 7 6 5 5 6 8 11 12 10 8 10 12 13 13 9 6 7
29 27 26 24 21 19 19 20 20 21 21 23 27 32 34 35 34 33 32 32 31 30 28 27 24 21 20 20 19 18 17 17 17 17 16 16 18 21 25 27 28 28 27 26 24 24 24 22 21 20 19 18 17 18 18 16 15 15 15 15 14 12 10 10 10 9 6 4 4 5 5 6 8 9 11 12 10 9 11 12 11 10 8 8 7
28 27 26 23 20 19 22 22 22 22 22 23 26 30 32 34 34 34 33 32 31 30 28 25 21 20 20 20 19 18 17 15 14 15 15 16 18 20 24 27 28 28 26 25 23 22 21 21 20 20 19 16 15 16 16 15 15 15 15 15 14 12 11 10 10 8 6 4 3 4 4 6 8 9 10 12 11 10 10 10 10 11 10 9 9
28 27 26 24 22 22 23 24 22 22 23 24 26 28 30 33 34 34 34 33 32 30 29 26 22 20 21 20 19 19 18 16 15 15 16 16 17 19 23 27 29 28 26 25 23 21 21 21 19 19 19 17 15 15 15 14 14 13 13 14 14 12 12 11 11 10 8 5 5 6 6 8 9 10 11 12 12 9 8 11 13 13 13 12 12
29 28 27 26 25 24 24 25 24 23 23 24 26 27 28 30 31 32 33 33 31 30 30 27 22 20 19 19 20 20 20 18 16 16 16 17 18 19 23 27 29 29 27 25 24 23 22 21 19 18 18 18 18 17 15 14 13 12 12 13 14 13 12 13 13 11 8 6 6 7 9 10 11 11 11 13 12 9 9 12 14 15 14 13 13
28 28 27 26 26 26 26 26 25 24 23 24 26 27 26 27 27 28 31 32 30 29 28 23 18 17 17 18 19 20 19 16 14 14 16 18 19 19 21 25 28 30 29 26 25 24 23 21 20 19 19 20 19 19 17 15 14 13 12 12 13 14 14 14 14 11 9 8 8 8 8 10 11 11 11 12 12 10 11 12 14 14 14 14 16
27 27 26 26 26 27 27 27 27 26 24 24 26 28 27 26 26 27 28 30 31 30 26 21 16 15 16 16 17 17 15 13 12 13 14 15 16 17 19 22 27 31 31 28 26 24 23 22 20 20 19 20 20 20 19 18 17 16 14 13 14 14 15 15 14 12 10 10 10 9 8 9 9 9 10 11 12 11 12 12 13 13 14 17 19
25 25 24 25 25 26 26 27 29 28 27 27 28 29 27 26 27 28 29 31 31 28 25 22 18 17 16 15 14 14 13 12 12 12 11 11 12 14 16 20 26 30 32 30 28 26 24 22 21 20 20 20 21 21 20 19 19 17 16 15 16 16 16 16 15 13 12 12 12 11 11 10 9 9 9 10 12 14 14 13 13 13 15 18 21
24 25 25 25 25 23 23 26 28 29 29 29 29 28 26 26 27 29 31 31 30 27 25 23 21 18 17 15 14 13 12 12 12 12 11 10 10 12 13 17 21 27 30 31 30 29 27 25 24 24 23 22 22 21 20 19 19 18 18 18 16 16 16 16 15 14 14 14 13 13 13 11 11 11 11 12 14 16 16 15 15 16 17 19 20
25 25 25 24 23 23 23 25 27 28 29 30 28 27 27 27 27 28 31 32 31 29 27 24 20 18 18 16 15 13 11 11 11 11 10 8 8 9 11 14 17 22 28 32 33 32 30 28 27 26 25 25 24 23 22 21 20 19 19 18 16 16 16 16 15 15 15 15 15 14 14 13 13 13 14 15 17 18 18 17 17 18 19 20 20
18 17 17 18 20 22 23 23 25 27 29 29 28 28 28 28 27 29 30 31 31 31 28 23 20 19 18 16 14 12 9 9 9 9 9 8 7 9 10 13 16 20 25 30 33 34 32 30 29 28 27 27 27 26 26 24 22 20 19 18 17 17 17 17 16 16 15 15 15 14 14 14 15 16 17 18 19 19 18 17 17 19 20 21 22
12 13 14 14 17 20 22 22 23 26 27 28 28 28 29 29 29 29 28 28 31 32 28 22 19 18 16 14 13 12 9 8 8 9 10 9 9 10 12 16 18 21 23 26 29 30 31 31 31 31 30 30 30 29 29 27 24 21 20 17 15 17 18 18 17 15 14 14 14 14 14 14 15 16 18 18 17 17 17 17 19 21 22 23 24
12 13 14 14 15 17 19 20 21 23 25 26 28 29 30 30 30 30 29 29 30 28 23 18 16 15 14 14 14 13 12 10 11 12 12 10 11 13 15 17 18 19 20 21 21 21 21 23 24 25 27 28 29 29 29 27 24 23 20 16 14 15 16 17 16 14 14 15 16 16 15 13 12 13 15 15 16 17 18 19 21 23 24 25 26
13 13 13 14 16 16 17 19 21 23 24 26 28 29 31 32 32 31 30 29 27 22 18 16 16 15 14 15 15 14 14 13 14 14 14 13 13 15 17 17 17 17 17 16 14 14 14 15 16 18 20 23 25 26 25 25 24 23 20 16 13 11 11 12 13 13 13 14 14 13 12 12 11 12 14 16 18 19 21 22 23 23 23 24 25
12 11 12 16 19 20 20 20 21 23 25 26 28 29 30 31 31 30 28 27 24 19 17 17 16 15 14 14 14 14 15 15 16 17 17 16 16 17 18 19 19 18 17 14 12 12 13 14 15 17 18 19 19 19 20 22 23 23 20 15 11 10 10 11 12 12 13 13 12 11 11 11 13 14 16 19 20 21 21 22 22 22 23 25 27
10 10 12 13 16 19 21 21 22 23 25 26 26 26 28 29 29 29 27 25 22 19 18 18 17 15 14 14 14 15 15 16 17 19 19 19 18 19 20 20 20 19 18 15 13 13 14 14 15 15 15 15 15 16 17 19 22 24 22 15 10 9 11 12 12 12 12 11 10 11 11 12 14 16 18 19 20 20 20 20 22 23 26 27 28
10 10 11 11 12 15 16 18 20 21 22 22 21 22 24 26 26 26 24 22 20 20 19 18 17 16 14 12 12 13 14 14 15 16 17 18 18 18 18 19 20 19 18 15 14 15 15 15 14 14 14 15 15 16 16 17 17 19 19 14 10 10 12 13 12 11 11 11 11 12 14 15 17 18 18 18 18 19 21 23 25 26 27 28 27
10 10 10 10 11 13 13 13 14 16 18 19 19 20 20 21 22 22 22 21 20 19 18 17 16 14 12 11 11 12 12 11 11 11 13 14 15 15 15 15 16 17 16 15 15 15 16 15 15 14 12 11 9 8 9 9 10 12 13 11 9 11 12 11 10 11 11 12 13 15 17 18 18 17 16 17 19 21 22 24 25 26 26 26 26
9 9 9 9 10 13 14 14 14 15 16 18 19 19 20 20 21 21 20 19 18 17 17 16 15 14 12 11 12 12 11 10 9 9 11 12 13 13 12 13 14 15 15 14 14 15 15 14 13 11 8 6 4 2 2 3 4 7 7 7 8 10 10 10 10 12 13 13 15 16 16 16 15 15 16 18 19 21 22 23 24 25 25 25 24
8 9 9 10 11 13 15 15 15 15 16 17 17 18 18 19 20 20 19 18 17 17 16 15 14 13 13 13 13 13 11 10 10 10 11 12 13 13 12 12 13 13 12 11 11 11 10 9 10 9 8 7 6 5 3 3 4 5 5 6 8 9 10 11 12 13 13 14 14 14 14 15 15 16 17 19 21 22 23 23 23 23 23 23 23
9 9 10 10 11 12 14 14 13 13 14 15 15 16 16 17 18 19 19 18 17 16 15 14 13 13 13 14 14 13 11 11 11 10 11 13 13 13 12 11 10 9 8 7 6 6 6 7 9 11 10 10 10 10 8 7 6 6 7 8 10 11 12 13 13 13 14 14 14 15 15 16 17 18 20 21 22 22 22 22 22 22 22 23 24
10 10 9 10 11 13 13 12 12 12 13 13 14 15 16 17 18 19 19 18 16 15 15 15 14 13 14 14 13 12 10 10 10 10 11 12 12 11 10 9 9 9 8 7 6 7 7 9 11 12 12 12 12 11 11 11 11 10 11 11 12 12 12 13 13 14 15 15 15 15 16 18 19 20 22 22 21 21 21 21 22 22 23 23 23
12 12 11 12 12 13 13 13 13 13 14 14 14 15 16 18 19 20 19 17 15 15 16 16 15 15 14 13 11 9 9 9 9 10 12 12 11 10 11 11 12 10 8 7 8 9 10 11 12 13 13 13 12 11 11 11 11 11 11 11 11 11 12 13 15 15 15 15 16 17 19 20 21 21 21 20 20 20 21 21 22 21 21 21 20
13 13 13 13 13 12 13 14 15 15 15 15 16 17 18 19 20 20 18 16 16 16 16 16 16 15 14 11 10 9 9 9 9 10 12 12 12 12 14 14 12 10 9 9 10 10 10 11 12 13 13 13 12 10 9 8 7 7 8 8 10 12 13 14 14 15 15 17 18 19 20 20 19 19 19 19 19 20 20 20 20 19 19 19 18
14 14 13 13 13 13 14 14 15 15 15 15 15 16 18 19 19 18 16 16 16 16 17 16 15 13 12 10 9 9 10 10 10 11 12 13 13 14 15 13 12 11 10 10 9 9 10 11 11 11 11 10 8 7 6 5 6 7 8 10 12 13 14 14 15 16 18 19 19 19 18 18 18 18 18 18 18 18 18 18 18 17 16 16 16
15 14 14 13 12 12 13 14 15 15 15 15 15 17 18 18 18 17 16 16 16 16 16 14 13 12 12 11 11 10 10 10 11 12 14 15 15 15 14 12 12 12 11 9 8 8 8 8 8 7 6 6 5 6 6 6 7 8 10 11 13 13 14 16 17 18 18 18 17 17 17 17 17 17 17 17 17 17 16 16 15 14 14 14 15
17 17 16 15 13 13 13 13 14 15 16 16 16 17 18 18 17 17 16 16 16 15 14 13 13 13 12 12 11 10 10 10 12 14 16 16 15 14 13 12 12 12 10 9 8 7 7 7 6 5 5 6 7 7 8 8 9 10 11 12 13 15 16 17 17 17 16 16 16 16 16 16 16 16 16 16 15 14 13 12 12 12 14 15 16
18 18 18 17 16 16 15 15 15 16 17 17 17 17 18 19 18 17 17 16 15 13 12 12 13 14 13 11 10 10 10 11 13 14 15 14 13 12 13 13 12 11 9 8 7 7 8 7 6 6 7 8 9 9 10 10 11 11 12 14 15 15 15 15 15 15 15 14 14 14 14 14 15 15 14 13 12 11 11 11 12 14 15 16 17
Wind_Direction
207 209 212 215 216 217 217 216 216 217 218 219 218 215 213 215 220 222 219 217 218 223 229 234 235 241 244 226 211 215 221 224 236 243 238 228 217 211 208 203 202 205 204 203 201 200 202 200 194 189 187 187 183 178 178 179 183 191 197 202 208 208 214 217 184 152 138 144 309 316 316 315 321 341 358 8 13 13 11 33 47 48 47 46 42
207 209 212 215 217 218 218 217 217 218 218 216 214 212 214 218 222 222 218 217 219 225 232 234 235 240 235 218 212 219 224 228 237 240 235 227 217 210 208 205 204 206 207 205 202 199 200 200 196 191 189 191 189 184 183 181 180 185 187 190 200 205 208 204 180 159 158 201 300 321 321 318 327 347 359 7 15 20 20 30 42 47 48 45 41
208 210 211 213 215 218 220 220 219 218 216 214 213 212 214 218 220 219 216 216 220 226 231 232 235 234 222 211 212 217 221 225 229 231 228 223 217 210 207 207 206 207 208 207 203 200 199 199 199 196 193 193 194 190 183 176 177 183 184 186 197 206 206 198 181 168 174 223 301 328 335 338 347 1 7 10 13 17 25 39 42 46 47 44 40
208 210 211 212 215 218 221 220 217 216 216 214 211 211 212 215 216 215 214 217 222 226 227 229 229 221 210 208 213 217 222 225 225 225 223 219 215 211 208 207 205 206 208 208 205 202 200 199 200 198 196 196 194 189 174 160 159 171 178 180 197 221 222 206 188 179 196 245 307 338 350 355 5 17 19 20 17 12 21 40 47 48 45 42 40
208 209 210 212 215 218 218 215 215 216 215 211 208 208 210 213 215 213 212 217 223 225 226 225 218 208 205 210 216 221 224 226 226 223 219 215 211 211 211 208 205 205 207 207 207 205 202 202 204 201 197 196 194 183 166 157 157 159 156 143 130 218 243 220 202 201 223 259 309 346 13 19 19 23 28 33 30 21 24 34 42 51 50 44 42
209 209 211 213 215 217 214 211 213 216 211 204 204 206 208 212 214 212 213 218 222 225 226 221 209 203 208 212 216 221 223 224 226 223 220 215 210 210 212 210 206 205 206 207 208 208 205 204 205 203 197 193 193 184 170 163 161 155 145 134 121 118 181 217 221 236 268 293 311 350 50 42 30 32 35 36 37 39 44 48 41 39 40 44 46
210 210 212 213 213 215 213 209 212 215 207 200 203 206 208 211 213 212 214 218 222 225 226 220 208 205 210 214 215 219 222 223 224 223 220 216 212 211 211 210 208 206 207 208 209 210 208 205 204 202 195 190 191 186 177 171 166 159 149 135 129 135 157 196 227 257 306 321 303 72 61 52 45 45 43 42 41 40 42 45 42 36 33 36 43
206 207 209 210 211 213 212 208 211 215 208 201 202 206 208 210 210 211 215 219 223 227 227 220 210 207 210 213 215 218 221 223 224 223 220 217 214 213 212 211 210 208 208 209 210 211 207 203 202 200 192 188 191 187 181 178 174 167 153 134 124 131 139 146 171 186 29 359 81 90 77 67 60 54 48 46 43 37 35 35 36 40 39 34 39
203 203 206 208 211 213 211 209 211 215 211 203 202 205 207 207 208 210 214 220 224 222 219 215 211 211 213 215 216 218 221 223 224 223 221 218 216 215 214 214 213 212 211 209 209 209 205 201 200 198 194 193 196 193 187 185 183 176 160 138 126 124 122 114 108 111 103 84 83 85 80 71 62 53 44 40 38 34 33 35 36 42 48 45 43
201 202 205 209 211 210 210 210 212 214 212 205 202 204 205 204 206 209 212 217 219 214 209 210 212 214 219 220 219 220 221 221 222 223 223 221 219 218 217 216 216 215 214 213 210 207 203 200 200 199 200 201 200 197 195 193 190 184 171 151 135 122 106 93 88 90 89 85 83 81 71 61 54 47 40 37 36 32 32 36 38 42 50 53 48
200 203 206 208 209 209 209 211 213 215 213 205 201 202 203 203 205 208 210 211 213 209 207 208 211 215 222 224 223 222 221 220 220 221 221 220 221 222 221 219 218 217 216 217 215 209 202 200 201 203 205 204 202 201 201 200 197 192 183 169 152 123 94 76 71 76 82 82 80 74 64 55 48 41 35 31 30 30 32 38 41 43 44 42 37
201 204 206 208 208 208 208 210 213 217 213 203 200 200 201 203 205 207 208 208 208 208 206 206 211 217 222 224 224 223 222 221 220 220 220 220 221 224 225 223 222 219 218 218 216 211 205 203 203 204 205 206 206 206 207 208 207 203 198 196 184 129 88 69 61 64 74 78 76 71 61 52 45 37 30 26 25 29 37 46 50 48 45 38 32
201 204 206 208 207 206 208 211 213 216 213 202 199 200 200 203 205 207 207 207 208 209 206 206 212 220 225 226 224 224 224 222 220 220 219 220 221 224 226 226 226 223 221 220 216 211 209 208 206 204 204 204 208 212 214 215 215 212 213 224 231 155 80 64 54 49 56 63 66 68 58 45 39 33 25 22 24 29 39 53 57 54 47 38 32
201 204 206 207 207 207 209 213 214 216 213 203 198 199 201 204 206 207 208 208 208 209 208 209 215 222 228 230 228 228 227 224 222 220 220 220 222 225 227 228 228 227 225 223 217 212 211 212 212 210 207 207 210 214 216 217 218 219 226 243 248 234 61 50 41 33 31 39 54 64 57 41 32 26 19 22 30 32 38 50 55 52 45 39 32
199 201 203 205 207 208 210 213 214 216 216 206 200 200 202 205 206 208 210 212 212 212 212 215 219 225 230 234 234 232 229 227 225 224 223 223 224 227 228 229 229 228 226 225 220 214 214 215 216 216 214 213 212 212 214 218 223 230 240 251 253 246 45 30 23 18 15 26 50 62 55 40 26 15 12 20 36 38 37 43 45 42 38 36 33
200 202 202 204 207 210 210 212 215 219 219 209 202 201 203 206 209 211 213 214 212 210 211 215 221 226 233 240 240 236 232 230 229 229 229 228 228 229 229 230 230 229 228 226 220 216 215 214 215 217 218 217 214 211 215 222 229 238 245 253 262 314 18 6 7 4 3 23 51 53 47 27 6 2 3 8 34 43 39 38 39 35 28 22 18
205 206 206 208 209 211 211 212 216 221 222 212 204 204 205 207 210 214 215 214 211 207 208 214 221 231 249 256 250 243 238 235 233 233 233 232 231 231 230 229 231 231 230 227 222 218 216 214 215 218 218 218 216 214 219 226 233 241 247 252 264 322 331 338 349 350 345 353 36 42 37 5 347 355 355 352 12 46 40 31 28 22 14 7 3
204 205 206 209 210 210 211 216 221 225 223 214 207 207 208 210 212 214 216 218 216 211 211 214 223 241 258 263 257 249 243 240 238 236 236 235 234 232 231 231 230 229 228 226 221 217 215 216 219 220 219 219 218 218 223 230 234 243 249 251 254 267 302 323 333 330 315 278 328 32 13 337 336 350 349 343 350 33 31 22 16 8 1 359 358
203 206 208 210 211 211 215 222 228 231 226 216 210 210 210 211 213 214 216 220 221 217 214 218 230 244 251 252 250 246 243 241 237 234 234 234 234 233 232 230 228 227 228 226 220 217 218 219 221 222 222 222 221 220 225 231 235 243 250 255 263 273 287 304 314 308 281 245 232 227 240 304 330 346 347 343 349 14 13 8 5 359 352 352 355
206 210 212 212 212 216 223 228 233 237 230 216 211 212 213 213 214 213 213 218 222 221 218 223 233 241 244 245 243 242 242 239 235 236 238 234 233 235 234 229 228 230 230 227 224 225 225 222 222 223 224 225 225 223 226 232 237 242 248 254 261 269 277 287 299 296 269 246 237 230 250 288 311 336 343 342 351 360 353 348 353 352 346 343 349
207 210 212 214 217 221 227 231 237 242 233 217 212 214 215 216 216 215 214 217 219 219 219 223 231 240 243 242 239 239 241 240 239 246 249 239 234 237 235 230 232 234 232 229 230 231 230 227 226 226 226 227 227 227 228 232 237 242 247 253 256 261 269 278 291 294 272 251 242 239 279 292 303 329 335 335 346 344 330 329 340 345 341 334 340
206 206 210 216 220 222 224 231 239 240 229 218 215 215 215 216 217 217 217 218 217 217 219 223 231 241 242 238 238 240 241 240 242 251 251 240 234 236 235 233 235 236 234 233 235 235 235 236 236 234 230 227 227 228 229 231 236 241 246 251 255 259 266 273 284 289 273 254 246 248 278 295 303 318 323 325 330 329 326 325 329 336 335 321 327
204 205 211 215 217 219 224 232 239 236 225 218 216 215 214 215 216 217 218 219 217 217 220 225 230 235 236 236 239 242 241 240 243 250 251 242 236 236 235 235 236 236 236 239 241 239 239 241 243 243 240 234 230 228 229 231 234 239 245 252 256 259 264 270 278 281 272 259 248 244 263 291 299 305 313 318 317 316 324 325 324 330 328 293 307
203 206 212 214 216 222 227 232 237 234 224 217 216 216 215 215 215 216 219 223 221 219 222 228 231 234 237 239 241 242 241 240 243 249 252 247 242 238 236 235 235 236 238 242 244 243 242 242 245 246 245 241 233 227 227 230 233 238 244 251 256 261 265 269 273 277 275 264 252 249 257 277 290 298 308 313 308 302 316 322 322 327 318 271 295
203 211 214 212 215 225 229 230 233 230 223 218 216 216 216 217 218 220 222 223 222 221 224 229 232 238 244 245 244 244 244 244 245 247 249 250 246 241 237 235 234 236 240 243 244 245 245 246 246 243 239 235 228 224 226 230 233 238 244 249 255 262 265 267 271 273 271 262 257 256 252 261 280 298 314 320 310 294 305 318 321 323 310 275 282
205 211 211 208 215 229 231 229 229 225 222 221 219 219 220 222 222 223 224 223 223 225 228 231 236 245 249 249 250 248 245 245 245 246 248 249 247 242 236 235 234 235 239 243 244 245 246 245 242 235 228 225 223 222 226 229 231 237 243 248 255 262 262 265 267 262 250 251 273 278 263 263 277 294 315 325 317 300 306 321 323 325 322 298 285
206 207 207 209 217 228 232 231 228 225 223 222 221 221 224 226 227 227 227 226 226 229 231 234 241 250 252 252 252 248 245 244 245 245 248 250 251 245 236 232 232 233 236 240 243 244 245 244 240 230 222 223 226 223 221 224 231 240 248 252 255 257 257 260 259 253 247 250 268 279 279 279 285 292 304 316 318 311 314 324 326 327 328 316 301
207 206 208 211 216 223 229 231 230 227 227 225 221 220 221 224 226 230 231 231 231 233 235 237 244 253 256 256 256 252 248 249 251 254 257 260 260 253 239 231 229 230 232 236 240 243 245 244 240 231 224 225 227 225 225 229 238 250 258 259 258 257 257 258 257 254 252 251 259 270 275 278 283 288 294 304 310 308 310 320 325 325 323 317 309
208 209 211 215 219 222 226 230 231 231 231 226 220 218 220 223 227 232 235 236 238 241 244 247 254 261 264 265 264 259 256 260 269 274 272 269 267 261 249 238 231 228 229 234 238 241 242 241 238 233 229 227 228 229 229 233 242 252 262 267 267 262 258 256 256 253 251 251 259 269 274 278 282 284 287 294 298 298 305 318 323 320 317 315 312
210 211 213 217 222 225 228 230 233 234 234 228 220 216 218 222 227 232 236 237 238 242 246 251 258 265 267 267 267 267 268 276 281 273 266 264 263 258 250 243 234 228 228 231 234 237 239 237 235 233 232 232 233 232 231 237 246 253 261 271 272 264 254 249 248 248 247 249 256 264 270 278 286 288 287 288 288 290 299 311 315 313 313 314 315
212 214 219 224 228 232 234 236 236 236 235 232 224 217 215 219 223 228 231 234 235 238 243 246 250 256 260 259 260 263 265 262 252 242 238 243 250 249 243 238 232 228 228 230 232 234 234 232 232 235 236 237 237 234 235 244 252 256 264 274 273 261 250 243 242 245 247 247 253 259 263 270 283 290 287 281 281 289 299 304 304 303 305 308 312
216 219 224 228 232 238 241 239 236 234 232 230 225 219 217 220 222 224 227 229 232 235 238 240 243 249 252 251 249 249 246 233 222 219 219 226 240 245 239 232 228 226 227 230 232 234 235 235 236 239 241 242 241 240 243 250 256 263 270 272 262 248 240 238 241 246 250 251 255 260 262 266 276 283 280 276 278 286 294 296 294 296 299 301 305
218 221 226 231 236 240 241 238 234 232 231 230 224 219 221 224 226 227 228 228 228 230 232 234 238 244 247 246 244 243 232 214 207 211 213 217 236 245 236 225 220 220 223 228 231 234 237 240 241 243 244 245 246 249 253 257 261 265 264 255 242 231 230 234 238 243 248 254 258 261 264 268 274 277 277 276 278 283 288 290 291 296 298 299 303
223 234 241 242 238 234 231 232 232 232 233 230 226 223 224 226 229 233 233 231 231 231 230 232 239 243 243 241 241 239 226 210 209 215 216 222 244 250 232 216 213 218 224 229 233 236 239 243 246 248 250 251 253 255 257 260 262 259 251 243 239 237 235 234 237 242 251 257 259 262 267 269 270 272 273 275 278 282 285 288 292 296 298 301 306
245 260 259 247 234 229 228 230 231 233 234 232 229 227 227 228 231 235 239 241 241 237 232 234 240 242 240 239 240 240 236 227 225 226 224 228 244 247 230 214 210 215 222 227 232 238 242 247 252 255 256 257 258 259 260 262 261 255 248 248 256 257 250 244 242 245 252 259 263 269 274 274 273 273 273 273 277 282 286 291 296 299 302 305 309
264 268 259 241 224 220 226 231 233 236 237 235 233 231 230 229 231 235 239 242 241 237 234 237 242 242 241 241 241 240 239 236 236 235 233 236 245 244 235 223 215 213 217 222 228 234 241 248 254 257 257 257 258 260 261 261 256 251 249 257 269 268 257 250 248 249 255 264 270 274 277 277 275 271 269 272 280 287 292 297 300 302 304 305 307
264 262 247 223 204 202 214 226 232 235 236 235 234 234 232 231 232 234 237 239 238 236 239 243 245 245 245 243 241 238 234 232 233 233 233 241 248 246 239 233 226 220 218 221 226 235 247 256 260 262 260 256 256 258 258 253 247 247 251 260 271 272 262 256 255 255 259 264 266 266 266 267 266 265 269 278 288 294 298 300 301 302 303 304 307
259 252 230 211 201 201 209 219 227 232 232 233 234 235 235 235 236 237 241 242 241 240 242 244 246 250 250 247 244 240 235 230 227 227 229 237 242 240 236 234 233 228 225 227 235 251 265 272 272 269 262 255 251 254 254 248 245 247 253 261 272 279 272 262 252 249 252 258 261 264 267 268 270 275 282 290 296 299 301 301 301 302 304 308 311
248 236 222 216 212 212 215 220 226 230 231 232 234 236 237 239 239 240 242 242 240 240 240 240 241 245 247 245 242 242 240 237 233 234 236 238 238 235 234 235 234 231 230 234 246 261 273 277 274 269 261 253 254 261 263 258 252 248 250 257 268 270 266 260 255 255 261 268 271 273 275 278 285 292 298 302 305 307 306 305 306 307 308 310 312
226 215 213 218 221 220 219 221 224 227 230 231 234 235 237 239 240 240 241 241 240 243 244 241 238 239 242 245 246 248 249 248 244 242 242 239 235 233 233 232 231 230 234 243 255 264 271 272 271 270 266 263 267 272 270 264 254 244 242 245 251 256 261 265 265 266 271 275 278 281 286 293 299 304 308 311 313 313 311 310 310 309 309 310 310
217 212 214 221 223 219 214 213 217 223 227 229 233 236 239 241 241 241 240 241 243 246 247 242 238 239 241 244 249 252 255 256 251 244 240 235 233 233 234 234 234 236 243 254 261 264 268 269 270 270 268 266 274 281 275 263 248 235 230 231 239 249 260 266 269 273 279 283 287 291 296 300 303 305 308 311 312 312 311 310 309 309 309 309 309
221 222 224 231 232 224 216 212 216 221 223 228 234 237 240 242 242 241 241 242 243 245 244 240 237 236 236 238 244 249 253 255 250 239 231 229 231 237 241 243 243 246 253 262 266 267 268 267 262 255 245 238 251 286 283 250 230 219 219 226 238 250 263 273 279 284 287 289 292 295 298 300 302 303 305 308 309 309 309 308 308 308 308 309 310
232 233 231 232 234 233 228 225 224 223 221 224 229 233 237 241 240 239 240 242 243 244 244 239 236 234 232 234 239 242 245 247 243 234 227 227 233 241 246 247 247 250 255 261 262 259 256 247 234 223 217 222 237 245 233 217 221 227 234 243 254 269 281 286 288 290 292 294 297 297 297 299 301 303 305 307 308 308 307 307 308 308 309 310 310
238 237 235 234 237 240 240 237 232 226 222 223 225 228 232 235 236 237 239 240 242 245 243 239 236 234 230 231 234 237 240 243 238 228 223 226 231 237 240 240 238 235 231 228 224 215 209 212 214 215 220 231 242 247 246 245 246 251 258 266 276 283 286 285 286 290 293 294 294 294 295 299 302 304 306 307 307 307 307 307 308 309 308 307 307
240 239 237 238 240 242 241 236 227 222 222 225 226 226 227 230 232 235 237 238 239 241 239 236 234 232 231 233 235 236 240 241 234 225 221 221 221 223 221 212 202 194 189 187 191 193 198 208 214 219 227 235 241 246 251 255 258 261 267 273 277 280 281 282 286 288 289 289 292 295 299 303 304 304 305 305 305 307 309 309 309 308 307 307 310
240 241 239 238 240 241 238 233 226 221 222 224 223 221 220 223 227 232 234 233 232 233 234 233 232 230 230 230 229 230 234 236 231 223 217 210 204 199 191 179 173 174 181 193 204 209 214 219 221 224 229 233 237 243 250 255 258 261 264 268 271 275 279 282 284 286 288 292 297 300 301 302 302 303 304 306 308 309 309 307 307 308 310 313 316
237 235 234 236 239 240 238 234 229 225 223 223 221 218 217 221 227 231 230 224 221 224 228 229 228 228 225 220 217 221 225 225 220 214 204 194 184 177 171 167 167 177 191 203 209 214 221 226 227 228 230 233 237 241 243 244 246 251 257 265 271 277 281 283 287 292 297 300 301 301 301 302 304 305 307 308 308 307 307 307 310 314 316 318 320
235 232 230 231 234 237 238 236 232 227 226 225 222 219 219 223 226 225 218 213 214 219 222 223 222 221 216 210 210 215 217 213 209 199 186 174 168 166 165 167 173 183 193 201 210 222 230 230 227 226 226 225 226 228 229 233 243 253 263 272 277 280 284 288 293 299 301 301 302 303 304 306 308 308 307 307 307 308 310 314 316 318 319 321 324
234 233 232 232 234 237 239 239 236 234 231 227 223 222 221 222 220 214 208 208 212 215 217 218 215 208 201 197 199 203 204 201 193 179 167 161 161 164 167 173 180 186 194 207 218 225 225 218 208 204 204 207 216 227 234 241 252 261 271 279 282 285 290 294 297 300 302 303 306 308 308 308 308 307 306 308 311 314 316 317 318 321 324 326 328
232 233 233 233 233 233 233 235 237 236 232 227 223 221 219 215 212 208 205 205 207 210 214 212 204 195 189 187 190 193 193 187 177 166 158 157 160 166 172 179 186 192 202 215 218 210 198 186 183 194 212 223 232 238 241 248 259 268 276 284 287 291 294 297 300 303 306 307 308 308 307 306 306 307 310 314 316 317 318 320 322 326 328 327 327
226 227 227 227 227 227 228 230 230 229 228 227 224 219 212 207 206 204 201 198 200 205 205 195 185 181 181 182 183 182 178 174 170 164 159 159 164 171 177 185 193 201 209 211 204 193 189 190 202 219 227 230 235 240 246 254 264 273 281 287 292 295 298 301 304 306 306 306 306 305 305 307 310 312 315 317 318 319 323 326 328 329 329 328 329